| time (UTC) | temp C | wind direction | speed KPH | gust KPH | rain 1hr cm | rain 24hr cm | rain mn cm | humidity % | barometer mb |
| 20260510073009 | 20 | 319 | 0.0 | 4.8 | 0.00 | 0.00 | 0.00 | 94 | 1014.8 |
| 20260510072509 | 20 | 311 | 3.2 | 6.4 | 0.00 | 0.00 | 0.00 | 94 | 1014.9 |
| 20260510072005 | 20 | 325 | 4.8 | 6.4 | 0.00 | 0.00 | 0.00 | 94 | 1014.7 |
| 20260510071513 | 20 | 300 | 4.8 | 6.4 | 0.00 | 0.00 | 0.00 | 94 | 1014.7 |
| 20260510071007 | 20 | 71 | 0.0 | 4.8 | 0.00 | 0.00 | 0.00 | 94 | 1014.1 |
| 20260510070505 | 20 | 101 | 1.6 | 9.7 | 0.00 | 0.00 | 0.00 | 94 | 1013.9 |
| 20260510070003 | 20 | 108 | 1.6 | 9.7 | 0.00 | 0.00 | 0.00 | 94 | 1014.1 |
| 20260510065504 | 20 | 86 | 8.0 | 9.7 | 0.00 | 0.00 | 0.00 | 94 | 1014.0 |
| 20260510065003 | 20 | 309 | 1.6 | 3.2 | 0.00 | 0.00 | 0.00 | 94 | 1015.0 |
| 20260510064508 | 20 | 34 | 0.0 | 1.6 | 0.00 | 0.00 | 0.00 | 94 | 1015.0 |
| 20260510064003 | 20 | 34 | 0.0 | 3.2 | 0.00 | 0.00 | 0.00 | 94 | 1014.9 |
| 20260510063504 | 20 | 34 | 0.0 | 3.2 | 0.00 | 0.00 | 0.00 | 94 | 1014.7 |
| 20260510063009 | 20 | 34 | 0.0 | 3.2 | 0.00 | 0.00 | 0.00 | 94 | 1014.7 |
| 20260510062505 | 20 | 34 | 0.0 | 3.2 | 0.00 | 0.00 | 0.00 | 94 | 1014.8 |
| 20260510062009 | 20 | 34 | 0.0 | 3.2 | 0.00 | 0.00 | 0.00 | 94 | 1014.8 |
| 20260510061512 | 20 | 44 | 1.6 | 3.2 | 0.00 | 0.00 | 0.00 | 94 | 1014.7 |
| 20260510061004 | 20 | 43 | 0.0 | 3.2 | 0.00 | 0.00 | 0.00 | 94 | 1014.8 |
| 20260510060507 | 20 | 121 | 0.0 | 3.2 | 0.00 | 0.00 | 0.00 | 94 | 1014.9 |
| 20260510060024 | 20 | 145 | 0.0 | 3.2 | 0.00 | 0.00 | 0.00 | 94 | 1015.0 |
| 20260510055506 | 20 | 145 | 0.0 | 3.2 | 0.00 | 0.00 | 0.00 | 94 | 1014.9 |
| 20260510055003 | 20 | 141 | 0.0 | 3.2 | 0.00 | 0.00 | 0.00 | 94 | 1014.9 |
| 20260510054504 | 20 | 145 | 0.0 | 3.2 | 0.00 | 0.00 | 0.00 | 94 | 1015.0 |
| 20260510054004 | 20 | 105 | 1.6 | 3.2 | 0.00 | 0.00 | 0.00 | 94 | 1015.0 |
| 20260510053505 | 20 | 41 | 0.0 | 3.2 | 0.00 | 0.00 | 0.00 | 94 | 1015.2 |
| 20260510053008 | 20 | 41 | 0.0 | 3.2 | 0.00 | 0.00 | 0.00 | 94 | 1015.3 |
| 20260510052504 | 20 | 41 | 0.0 | 1.6 | 0.00 | 0.00 | 0.00 | 94 | 1015.3 |
| 20260510052004 | 20 | 41 | 0.0 | 3.2 | 0.00 | 0.00 | 0.00 | 94 | 1015.3 |
| 20260510051511 | 20 | 41 | 0.0 | 3.2 | 0.00 | 0.00 | 0.00 | 94 | 1015.3 |
| 20260510051009 | 20 | 41 | 0.0 | 1.6 | 0.00 | 0.00 | 0.00 | 94 | 1015.5 |
| 20260510050504 | 20 | 41 | 0.0 | 1.6 | 0.00 | 0.00 | 0.00 | 94 | 1015.5 |
| 20260510050015 | 20 | 41 | 0.0 | 1.6 | 0.00 | 0.00 | 0.00 | 94 | 1015.6 |
| 20260510045511 | 20 | 41 | 0.0 | 3.2 | 0.00 | 0.00 | 0.00 | 94 | 1015.6 |
| 20260510045009 | 20 | 41 | 0.0 | 3.2 | 0.00 | 0.00 | 0.00 | 94 | 1015.7 |
| 20260510044530 | 20 | 41 | 0.0 | 3.2 | 0.00 | 0.00 | 0.00 | 94 | 1015.8 |
| 20260510044009 | 20 | 41 | 0.0 | 3.2 | 0.00 | 0.00 | 0.00 | 94 | 1015.7 |
| 20260510043504 | 20 | 41 | 0.0 | 3.2 | 0.00 | 0.00 | 0.00 | 94 | 1015.9 |
| 20260510043008 | 20 | 41 | 0.0 | 1.6 | 0.00 | 0.00 | 0.00 | 94 | 1015.8 |
| 20260510042503 | 20 | 41 | 0.0 | 3.2 | 0.00 | 0.00 | 0.00 | 94 | 1015.6 |
| 20260510042002 | 20 | 41 | 0.0 | 3.2 | 0.00 | 0.00 | 0.00 | 94 | 1015.6 |
| 20260510041513 | 20 | 41 | 0.0 | 3.2 | 0.00 | 0.00 | 0.00 | 94 | 1015.7 |
| 20260510041004 | 20 | 41 | 0.0 | 1.6 | 0.00 | 0.00 | 0.00 | 94 | 1015.6 |
| 20260510040508 | 20 | 41 | 0.0 | 3.2 | 0.00 | 0.00 | 0.00 | 94 | 1015.6 |
| 20260510040013 | 20 | 41 | 0.0 | 3.2 | 0.00 | 0.00 | 0.00 | 94 | 1015.6 |
| 20260510035504 | 20 | 41 | 0.0 | 3.2 | 0.00 | 0.00 | 0.00 | 94 | 1015.7 |
| 20260510035009 | 20 | 41 | 0.0 | 3.2 | 0.00 | 0.00 | 0.00 | 94 | 1015.6 |
| 20260510034521 | 20 | 41 | 0.0 | 3.2 | 0.00 | 0.00 | 0.00 | 94 | 1015.6 |
| 20260510034009 | 20 | 41 | 0.0 | 3.2 | 0.00 | 0.03 | 0.00 | 94 | 1015.6 |
| 20260510033511 | 20 | 41 | 0.0 | 3.2 | 0.00 | 0.03 | 0.00 | 94 | 1015.5 |
| 20260510033023 | 20 | 41 | 1.6 | 3.2 | 0.00 | 0.03 | 0.00 | 94 | 1015.5 |
| 20260510032507 | 20 | 202 | 0.0 | 4.8 | 0.00 | 0.03 | 0.00 | 94 | 1015.7 |
| 20260510032004 | 20 | 202 | 1.6 | 4.8 | 0.00 | 0.03 | 0.00 | 94 | 1015.8 |
| 20260510031512 | 20 | 209 | 3.2 | 3.2 | 0.00 | 0.03 | 0.00 | 94 | 1015.8 |
| 20260510031003 | 20 | 252 | 3.2 | 3.2 | 0.00 | 0.03 | 0.00 | 94 | 1015.6 |
| 20260510030505 | 20 | 127 | 0.0 | 3.2 | 0.00 | 0.03 | 0.00 | 94 | 1015.5 |
| 20260510030014 | 20 | 68 | 1.6 | 3.2 | 0.00 | 0.03 | 0.00 | 94 | 1015.3 |
| 20260510025508 | 20 | 1 | 1.6 | 3.2 | 0.00 | 0.03 | 0.00 | 94 | 1015.2 |
| 20260510025009 | 20 | 8 | 1.6 | 3.2 | 0.00 | 0.03 | 0.00 | 94 | 1015.1 |
| 20260510024518 | 20 | 190 | 0.0 | 3.2 | 0.00 | 0.03 | 0.00 | 94 | 1015.2 |
| 20260510024007 | 20 | 190 | 0.0 | 3.2 | 0.00 | 0.03 | 0.00 | 94 | 1015.2 |
| 20260510023507 | 20 | 190 | 0.0 | 3.2 | 0.00 | 0.03 | 0.00 | 94 | 1015.2 |
| 20260510023024 | 20 | 190 | 0.0 | 1.6 | 0.00 | 0.03 | 0.00 | 94 | 1015.0 |
| 20260510022510 | 20 | 190 | 0.0 | 1.6 | 0.00 | 0.03 | 0.00 | 94 | 1015.0 |
| 20260510022010 | 20 | 190 | 0.0 | 1.6 | 0.00 | 0.03 | 0.00 | 94 | 1014.9 |
| 20260510021526 | 20 | 190 | 0.0 | 0.0 | 0.00 | 0.03 | 0.00 | 94 | 1015.0 |
| 20260510021004 | 20 | 190 | 0.0 | 3.2 | 0.00 | 0.03 | 0.00 | 94 | 1014.9 |
| 20260510020504 | 20 | 190 | 0.0 | 3.2 | 0.00 | 0.05 | 0.00 | 94 | 1014.8 |
| 20260510020012 | 20 | 190 | 0.0 | 3.2 | 0.00 | 0.05 | 0.00 | 94 | 1014.9 |
| 20260510015504 | 20 | 190 | 1.6 | 3.2 | 0.00 | 0.05 | 0.00 | 94 | 1014.9 |
| 20260510015006 | 20 | 183 | 0.0 | 3.2 | 0.00 | 0.05 | 0.00 | 94 | 1014.8 |
| 20260510014519 | 20 | 183 | 0.0 | 3.2 | 0.00 | 0.05 | 0.00 | 94 | 1014.8 |
| 20260510014009 | 20 | 207 | 0.0 | 3.2 | 0.00 | 0.05 | 0.00 | 94 | 1014.8 |
| 20260510013509 | 20 | 163 | 1.6 | 4.8 | 0.00 | 0.05 | 0.00 | 94 | 1014.8 |
| 20260510012503 | 20 | 197 | 3.2 | 4.8 | 0.00 | 0.05 | 0.00 | 93 | 1014.9 |
| 20260510012004 | 20 | 203 | 3.2 | 4.8 | 0.00 | 0.05 | 0.00 | 94 | 1014.9 |
| 20260510011507 | 20 | 218 | 1.6 | 3.2 | 0.00 | 0.05 | 0.00 | 93 | 1014.9 |
| 20260510011001 | 20 | 356 | 0.0 | 3.2 | 0.00 | 0.05 | 0.00 | 93 | 1014.7 |
| 20260510010501 | 20 | 354 | 1.6 | 3.2 | 0.00 | 0.05 | 0.00 | 93 | 1014.6 |
| 20260510010001 | 20 | 333 | 1.6 | 3.2 | 0.00 | 0.05 | 0.00 | 93 | 1014.7 |
| 20260510005503 | 20 | 278 | 1.6 | 3.2 | 0.00 | 0.05 | 0.00 | 93 | 1014.6 |
| 20260510005003 | 20 | 255 | 0.0 | 3.2 | 0.00 | 0.05 | 0.00 | 93 | 1014.5 |
| 20260510004503 | 20 | 255 | 0.0 | 3.2 | 0.00 | 0.05 | 0.00 | 93 | 1014.4 |
| 20260510004005 | 20 | 255 | 0.0 | 3.2 | 0.00 | 0.05 | 0.00 | 93 | 1014.5 |
| 20260510003502 | 20 | 242 | 0.0 | 3.2 | 0.00 | 0.05 | 0.00 | 93 | 1014.5 |
| 20260510003004 | 20 | 231 | 1.6 | 3.2 | 0.00 | 0.05 | 0.00 | 93 | 1014.5 |
| 20260510002502 | 20 | 222 | 3.2 | 3.2 | 0.00 | 0.05 | 0.00 | 93 | 1014.5 |
| 20260510001006 | 20 | 155 | 1.6 | 3.2 | 0.00 | 0.05 | 0.00 | 93 | 1014.5 |
| 20260510000504 | 20 | 159 | 0.0 | 4.8 | 0.00 | 0.05 | 0.00 | 93 | 1014.3 |
| 20260509235501 | 20 | 181 | 4.8 | 6.4 | 0.00 | 0.05 | 0.00 | 93 | 1014.5 |
| 20260509235003 | 20 | 139 | 3.2 | 8.0 | 0.00 | 0.05 | 0.00 | 93 | 1014.5 |
| 20260509234502 | 21 | 162 | 3.2 | 8.0 | 0.00 | 0.05 | 0.00 | 93 | 1014.5 |
| 20260509234003 | 21 | 186 | 4.8 | 8.0 | 0.00 | 0.05 | 0.00 | 93 | 1014.6 |
| 20260509233507 | 21 | 198 | 6.4 | 6.4 | 0.00 | 0.05 | 0.00 | 93 | 1014.7 |
| 20260509233003 | 21 | 198 | 4.8 | 6.4 | 0.00 | 0.05 | 0.00 | 93 | 1014.7 |
| 20260509232503 | 21 | 219 | 4.8 | 4.8 | 0.00 | 0.05 | 0.00 | 93 | 1014.8 |
| 20260509232004 | 21 | 191 | 3.2 | 4.8 | 0.00 | 0.05 | 0.00 | 93 | 1014.6 |
| 20260509231503 | 21 | 235 | 1.6 | 4.8 | 0.00 | 0.05 | 0.00 | 93 | 1014.7 |
| 20260509231003 | 21 | 184 | 3.2 | 4.8 | 0.00 | 0.05 | 0.00 | 93 | 1014.6 |
| 20260509225504 | 21 | 188 | 3.2 | 4.8 | 0.00 | 0.05 | 0.00 | 93 | 1014.7 |
| 20260509225010 | 21 | 239 | 1.6 | 4.8 | 0.00 | 0.05 | 0.00 | 93 | 1014.6 |
| 20260509224502 | 21 | 226 | 1.6 | 4.8 | 0.00 | 0.05 | 0.00 | 93 | 1014.7 |
| 20260509224002 | 21 | 269 | 1.6 | 4.8 | 0.00 | 0.05 | 0.00 | 93 | 1014.6 |
| 20260509223505 | 21 | 309 | 1.6 | 3.2 | 0.00 | 0.05 | 0.00 | 93 | 1014.5 |
| 20260509223003 | 21 | 260 | 0.0 | 3.2 | 0.00 | 0.05 | 0.00 | 93 | 1014.4 |
| 20260509221009 | 21 | 180 | 1.6 | 3.2 | 0.00 | 0.05 | 0.00 | 93 | 1014.1 |
| 20260509220503 | 21 | 182 | 1.6 | 3.2 | 0.00 | 0.05 | 0.00 | 93 | 1014.1 |
| 20260509215504 | 21 | 181 | 0.0 | 4.8 | 0.00 | 0.05 | 0.00 | 93 | 1014.1 |
| 20260509214007 | 20 | 168 | 1.6 | 3.2 | 0.00 | 0.05 | 0.00 | 93 | 1014.0 |
| 20260509213503 | 20 | 108 | 0.0 | 6.4 | 0.00 | 0.05 | 0.00 | 92 | 1014.0 |
| 20260509213004 | 21 | 75 | 3.2 | 6.4 | 0.00 | 0.05 | 0.00 | 93 | 1013.9 |
| 20260509212502 | 21 | 80 | 0.0 | 4.8 | 0.00 | 0.05 | 0.00 | 93 | 1014.0 |
| 20260509212007 | 21 | 169 | 1.6 | 4.8 | 0.00 | 0.05 | 0.00 | 93 | 1013.9 |
| 20260509204514 | 20 | 15 | 4.8 | 11.3 | 0.00 | 0.05 | 0.00 | 92 | 1014.1 |
| 20260509204007 | 20 | 1 | 6.4 | 9.7 | 0.00 | 0.05 | 0.00 | 92 | 1014.2 |
| 20260509202002 | 20 | 355 | 4.8 | 9.7 | 0.00 | 0.05 | 0.00 | 93 | 1014.4 |
| 20260509201503 | 20 | 16 | 4.8 | 12.9 | 0.00 | 0.05 | 0.00 | 93 | 1014.4 |
| 20260509201004 | 20 | 355 | 9.7 | 12.9 | 0.00 | 0.05 | 0.00 | 92 | 1014.6 |
| 20260509200503 | 20 | 3 | 8.0 | 9.7 | 0.00 | 0.05 | 0.00 | 92 | 1014.6 |
| 20260509194008 | 20 | 353 | 11.3 | 17.7 | 0.00 | 0.05 | 0.00 | 91 | 1014.7 |
| 20260509191008 | 21 | 326 | 8.0 | 19.3 | 0.00 | 0.05 | 0.00 | 91 | 1014.7 |
| 20260509190503 | 21 | 352 | 8.0 | 25.7 | 0.00 | 0.05 | 0.00 | 91 | 1014.6 |
| 20260509190006 | 21 | 359 | 12.9 | 32.2 | 0.00 | 0.05 | 0.00 | 90 | 1014.6 |
| 20260509185503 | 21 | 359 | 19.3 | 32.2 | 0.00 | 0.05 | 0.00 | 89 | 1014.4 |
| 20260509185002 | 22 | 360 | 19.3 | 30.6 | 0.00 | 0.05 | 0.00 | 88 | 1014.4 |
| 20260509183503 | 25 | 320 | 6.4 | 8.0 | 0.00 | 0.05 | 0.00 | 80 | 1014.1 |
| 20260509182507 | 25 | 321 | 4.8 | 11.3 | 0.00 | 0.05 | 0.00 | 80 | 1014.1 |
| 20260509181517 | 25 | 311 | 6.4 | 11.3 | 0.00 | 0.05 | 0.00 | 79 | 1014.2 |
| 20260509181008 | 25 | 287 | 4.8 | 11.3 | 0.00 | 0.05 | 0.00 | 79 | 1014.3 |
| 20260509180507 | 25 | 325 | 3.2 | 12.9 | 0.00 | 0.05 | 0.00 | 79 | 1014.3 |
| 20260509175503 | 26 | 330 | 3.2 | 9.7 | 0.00 | 0.05 | 0.00 | 77 | 1014.3 |
| 20260509175006 | 26 | 319 | 4.8 | 8.0 | 0.00 | 0.05 | 0.00 | 77 | 1014.4 |
| 20260509174506 | 25 | 272 | 4.8 | 8.0 | 0.00 | 0.05 | 0.00 | 77 | 1014.3 |
| 20260509174004 | 25 | 193 | 4.8 | 8.0 | 0.00 | 0.05 | 0.00 | 79 | 1014.5 |
| 20260509173503 | 25 | 180 | 4.8 | 12.9 | 0.00 | 0.05 | 0.00 | 79 | 1014.6 |
| 20260509171517 | 25 | 210 | 6.4 | 12.9 | 0.00 | 0.05 | 0.00 | 78 | 1014.7 |
| 20260509171006 | 25 | 198 | 6.4 | 12.9 | 0.00 | 0.05 | 0.00 | 78 | 1014.7 |
| 20260509164003 | 25 | 189 | 9.7 | 12.9 | 0.00 | 0.05 | 0.00 | 79 | 1014.5 |
| 20260509163503 | 25 | 187 | 9.7 | 11.3 | 0.00 | 0.05 | 0.00 | 79 | 1014.6 |
| 20260509163007 | 25 | 149 | 1.6 | 4.8 | 0.00 | 0.05 | 0.00 | 81 | 1014.7 |
| 20260509162502 | 24 | 290 | 1.6 | 3.2 | 0.00 | 0.05 | 0.00 | 80 | 1014.7 |
| 20260509162001 | 24 | 210 | 1.6 | 4.8 | 0.00 | 0.05 | 0.00 | 80 | 1014.8 |
| 20260509161503 | 24 | 333 | 3.2 | 8.0 | 0.00 | 0.05 | 0.00 | 81 | 1014.8 |
| 20260509161001 | 24 | 6 | 3.2 | 8.0 | 0.00 | 0.05 | 0.00 | 80 | 1014.9 |
| 20260509160504 | 24 | 60 | 4.8 | 11.3 | 0.00 | 0.05 | 0.00 | 80 | 1015.0 |
| 20260509160003 | 24 | 322 | 4.8 | 11.3 | 0.00 | 0.05 | 0.00 | 81 | 1015.0 |
| 20260509155503 | 23 | 216 | 3.2 | 6.4 | 0.00 | 0.05 | 0.00 | 81 | 1015.1 |
| 20260509155003 | 23 | 125 | 1.6 | 6.4 | 0.00 | 0.05 | 0.00 | 81 | 1014.9 |
| 20260509154507 | 23 | 290 | 3.2 | 8.0 | 0.00 | 0.05 | 0.00 | 81 | 1014.8 |
| 20260509154003 | 23 | 51 | 0.0 | 8.0 | 0.00 | 0.05 | 0.00 | 82 | 1014.8 |
| 20260509153503 | 23 | 105 | 3.2 | 9.7 | 0.00 | 0.05 | 0.00 | 83 | 1014.7 |
| 20260509153020 | 23 | 187 | 1.6 | 9.7 | 0.00 | 0.05 | 0.00 | 82 | 1014.6 |
| 20260509152504 | 23 | 148 | 3.2 | 8.0 | 0.00 | 0.05 | 0.00 | 84 | 1014.7 |
| 20260509152008 | 22 | 103 | 3.2 | 8.0 | 0.00 | 0.05 | 0.00 | 85 | 1014.7 |
| 20260509151508 | 22 | 152 | 3.2 | 6.4 | 0.00 | 0.05 | 0.00 | 85 | 1015.0 |
| 20260509151002 | 22 | 72 | 0.0 | 4.8 | 0.00 | 0.05 | 0.00 | 86 | 1015.2 |
| 20260509150503 | 22 | 51 | 3.2 | 4.8 | 0.00 | 0.05 | 0.00 | 87 | 1015.3 |
| 20260509150003 | 21 | 6 | 1.6 | 4.8 | 0.00 | 0.05 | 0.00 | 87 | 1015.3 |
| 20260509145503 | 21 | 68 | 1.6 | 6.4 | 0.00 | 0.05 | 0.00 | 87 | 1015.4 |
| 20260509145003 | 21 | 49 | 3.2 | 11.3 | 0.00 | 0.05 | 0.00 | 87 | 1015.5 |
| 20260509144512 | 21 | 17 | 6.4 | 11.3 | 0.00 | 0.05 | 0.00 | 88 | 1015.8 |
| 20260509144007 | 21 | 360 | 4.8 | 9.7 | 0.00 | 0.05 | 0.00 | 87 | 1015.9 |
| 20260509143504 | 21 | 344 | 6.4 | 9.7 | 0.00 | 0.05 | 0.00 | 87 | 1015.7 |
| 20260509143008 | 21 | 1 | 4.8 | 8.0 | 0.00 | 0.05 | 0.00 | 87 | 1015.6 |
| 20260509142508 | 21 | 1 | 4.8 | 6.4 | 0.00 | 0.05 | 0.00 | 87 | 1015.5 |
| 20260509142008 | 21 | 356 | 3.2 | 4.8 | 0.00 | 0.05 | 0.00 | 87 | 1015.5 |
| 20260509141516 | 21 | 335 | 3.2 | 4.8 | 0.00 | 0.05 | 0.00 | 87 | 1015.3 |
| 20260509141008 | 21 | 249 | 1.6 | 3.2 | 0.00 | 0.05 | 0.00 | 88 | 1015.3 |
| 20260509140503 | 21 | 302 | 1.6 | 3.2 | 0.00 | 0.05 | 0.00 | 89 | 1015.3 |
| 20260509140003 | 21 | 295 | 0.0 | 4.8 | 0.00 | 0.05 | 0.00 | 89 | 1015.3 |
| 20260509135502 | 21 | 307 | 0.0 | 4.8 | 0.00 | 0.05 | 0.00 | 89 | 1015.4 |
| 20260509135006 | 21 | 261 | 1.6 | 4.8 | 0.00 | 0.05 | 0.00 | 90 | 1015.3 |
| 20260509134503 | 21 | 355 | 3.2 | 8.0 | 0.00 | 0.05 | 0.00 | 91 | 1015.2 |
| 20260509133507 | 20 | 351 | 4.8 | 6.4 | 0.00 | 0.05 | 0.00 | 92 | 1015.2 |
| 20260509133007 | 20 | 359 | 3.2 | 4.8 | 0.00 | 0.05 | 0.00 | 92 | 1015.0 |
| 20260509132003 | 20 | 356 | 3.2 | 4.8 | 0.00 | 0.05 | 0.00 | 93 | 1015.0 |
| 20260509131512 | 20 | 360 | 1.6 | 4.8 | 0.00 | 0.05 | 0.00 | 93 | 1015.0 |
| 20260509131006 | 20 | 327 | 3.2 | 4.8 | 0.00 | 0.05 | 0.00 | 93 | 1015.1 |
| 20260509130504 | 20 | 274 | 1.6 | 4.8 | 0.00 | 0.05 | 0.00 | 93 | 1015.0 |
| 20260509125507 | 20 | 330 | 1.6 | 4.8 | 0.00 | 0.05 | 0.00 | 93 | 1014.8 |
| 20260509124505 | 20 | 356 | 0.0 | 3.2 | 0.00 | 0.05 | 0.00 | 93 | 1014.5 |
| 20260509124004 | 19 | 37 | 3.2 | 3.2 | 0.00 | 0.05 | 0.00 | 93 | 1014.3 |
| 20260509123503 | 19 | 131 | 0.0 | 3.2 | 0.00 | 0.05 | 0.00 | 93 | 1014.3 |
| 20260509123004 | 19 | 158 | 0.0 | 3.2 | 0.00 | 0.05 | 0.00 | 94 | 1014.2 |
| 20260509122504 | 19 | 297 | 0.0 | 3.2 | 0.00 | 0.05 | 0.00 | 93 | 1014.3 |
| 20260509122011 | 19 | 296 | 1.6 | 3.2 | 0.00 | 0.05 | 0.00 | 94 | 1014.4 |
| 20260509121512 | 19 | 345 | 1.6 | 3.2 | 0.00 | 0.05 | 0.00 | 93 | 1014.5 |
| 20260509121005 | 19 | 340 | 1.6 | 3.2 | 0.00 | 0.05 | 0.00 | 94 | 1014.5 |
| 20260509120507 | 19 | 359 | 1.6 | 3.2 | 0.00 | 0.05 | 0.00 | 94 | 1014.6 |
| 20260509120010 | 18 | 347 | 3.2 | 3.2 | 0.00 | 0.05 | 0.00 | 94 | 1014.5 |
| 20260509115506 | 18 | 359 | 0.0 | 3.2 | 0.00 | 0.05 | 0.00 | 93 | 1014.5 |
| 20260509115009 | 18 | 327 | 1.6 | 4.8 | 0.00 | 0.05 | 0.00 | 93 | 1014.6 |
| 20260509113503 | 18 | 289 | 1.6 | 3.2 | 0.00 | 0.05 | 0.00 | 94 | 1014.6 |
| 20260509113012 | 18 | 353 | 1.6 | 3.2 | 0.00 | 0.05 | 0.00 | 94 | 1014.4 |
| 20260509112503 | 18 | 1 | 3.2 | 4.8 | 0.00 | 0.05 | 0.00 | 94 | 1014.3 |
| 20260509112005 | 18 | 1 | 1.6 | 6.4 | 0.00 | 0.05 | 0.00 | 94 | 1014.3 |
| 20260509111507 | 18 | 359 | 3.2 | 6.4 | 0.00 | 0.05 | 0.00 | 93 | 1014.2 |
| 20260509111003 | 18 | 1 | 3.2 | 6.4 | 0.00 | 0.05 | 0.00 | 93 | 1014.2 |
| 20260509110502 | 18 | 359 | 4.8 | 6.4 | 0.00 | 0.05 | 0.00 | 93 | 1014.1 |
| 20260509110012 | 18 | 359 | 1.6 | 8.0 | 0.00 | 0.05 | 0.00 | 93 | 1014.1 |
| 20260509105505 | 18 | 1 | 4.8 | 8.0 | 0.00 | 0.05 | 0.00 | 93 | 1014.0 |
| 20260509105006 | 18 | 359 | 6.4 | 8.0 | 0.00 | 0.05 | 0.00 | 93 | 1013.9 |
| 20260509104533 | 18 | 188 | 0.0 | 3.2 | 0.00 | 0.05 | 0.00 | 93 | 1013.4 |
| 20260509104007 | 18 | 171 | 1.6 | 4.8 | 0.00 | 0.05 | 0.00 | 93 | 1013.4 |
| 20260509103507 | 18 | 315 | 4.8 | 4.8 | 0.00 | 0.05 | 0.00 | 93 | 1013.5 |
| 20260509103021 | 18 | 8 | 0.0 | 4.8 | 0.00 | 0.05 | 0.00 | 93 | 1013.2 |
| 20260509102507 | 18 | 77 | 0.0 | 6.4 | 0.00 | 0.05 | 0.00 | 93 | 1012.9 |
| 20260509102005 | 18 | 356 | 6.4 | 6.4 | 0.00 | 0.05 | 0.00 | 93 | 1013.2 |
| 20260509101509 | 18 | 115 | 0.0 | 11.3 | 0.00 | 0.05 | 0.00 | 93 | 1013.1 |
| 20260509101003 | 18 | 81 | 1.6 | 14.5 | 0.00 | 0.05 | 0.00 | 93 | 1013.1 |
| 20260509093502 | 18 | 165 | 3.2 | 8.0 | 0.00 | 0.05 | 0.00 | 93 | 1012.6 |
| 20260509093004 | 18 | 203 | 4.8 | 12.9 | 0.00 | 0.05 | 0.00 | 93 | 1012.7 |
| 20260509092505 | 18 | 196 | 6.4 | 12.9 | 0.00 | 0.05 | 0.00 | 93 | 1012.5 |
| 20260509092003 | 18 | 204 | 9.7 | 12.9 | 0.00 | 0.05 | 0.00 | 93 | 1012.4 |
| 20260509091506 | 18 | 181 | 8.0 | 11.3 | 0.00 | 0.05 | 0.00 | 93 | 1012.2 |
| 20260509091004 | 18 | 194 | 6.4 | 17.7 | 0.00 | 0.05 | 0.00 | 93 | 1012.2 |
| 20260509090506 | 18 | 208 | 6.4 | 22.5 | 0.00 | 0.05 | 0.00 | 93 | 1012.1 |
| 20260509090009 | 18 | 196 | 11.3 | 22.5 | 0.00 | 0.05 | 0.00 | 93 | 1011.9 |
| 20260509085505 | 18 | 188 | 11.3 | 17.7 | 0.00 | 0.05 | 0.00 | 93 | 1012.0 |
| 20260509085002 | 18 | 179 | 9.7 | 11.3 | 0.00 | 0.05 | 0.00 | 94 | 1012.5 |
| 20260509084503 | 18 | 207 | 4.8 | 9.7 | 0.00 | 0.05 | 0.00 | 94 | 1012.8 |
| 20260509084004 | 18 | 189 | 4.8 | 12.9 | 0.00 | 0.05 | 0.00 | 94 | 1012.8 |
| 20260509083502 | 18 | 186 | 6.4 | 19.3 | 0.00 | 0.05 | 0.00 | 94 | 1012.5 |
| 20260509083003 | 18 | 200 | 9.7 | 19.3 | 0.00 | 0.05 | 0.00 | 94 | 1012.3 |
| 20260509082503 | 18 | 179 | 11.3 | 19.3 | 0.00 | 0.05 | 0.00 | 94 | 1012.0 |
| 20260509082005 | 18 | 182 | 12.9 | 17.7 | 0.00 | 0.05 | 0.00 | 94 | 1012.2 |
| 20260509081504 | 18 | 153 | 9.7 | 12.9 | 0.00 | 0.05 | 0.00 | 94 | 1012.8 |
| 20260509081005 | 18 | 160 | 4.8 | 6.4 | 0.00 | 0.05 | 0.00 | 94 | 1013.5 |
| 20260509080504 | 18 | 311 | 1.6 | 6.4 | 0.00 | 0.05 | 0.00 | 94 | 1013.7 |
| 20260509080010 | 18 | 354 | 4.8 | 6.4 | 0.00 | 0.05 | 0.00 | 94 | 1013.8 |
| 20260509075504 | 18 | 351 | 4.8 | 6.4 | 0.00 | 0.05 | 0.00 | 94 | 1013.8 |
| 20260509075004 | 18 | 340 | 1.6 | 3.2 | 0.00 | 0.05 | 0.00 | 94 | 1013.7 |
| 20260509074512 | 18 | 309 | 3.2 | 4.8 | 0.00 | 0.05 | 0.00 | 94 | 1013.8 |
| 20260509074002 | 18 | 334 | 3.2 | 4.8 | 0.00 | 0.05 | 0.00 | 94 | 1013.8 |